[[{"header":{"parameterUnit":"m.s-1","parameterCategory":1,"la1":30.2992,"la2":30.254,"lo1":-89.0895,"lo2":-89.0443,"dy":0.0025,"dx":0.0025,"nx":19,"ny":19,"refTime":"2026-04-17T09:00:00:Z","depth":0,"parameterNumber":2,"parameterNumberName":"U-component_of_WINDS"},"data":[0,0,0,-0.9809,-0.9806,-0.9628,-0.9627,-0.9428,-0.9427,0,0,0,0,0,0,0,0,0,0,0,-0.9881,-0.988,-0.9809,-0.9805,-0.9628,-0.9627,-0.9429,-0.9427,0,0,0,0,0,0,0,0,0,0,0,-0.9881,-0.988,-0.988,-0.9805,-0.9628,-0.9627,-0.9429,-0.9552,0,0,0,0,0,0,0,0,0,0,-0.9719,-0.9805,-0.9881,-0.988,-0.9804,-0.9629,-0.9627,-0.9558,-0.9544,-0.9521,0,-0.9508,0,-0.9465,-0.9415,-0.9415,0,0,0,-0.979,-0.9816,-0.9751,-0.9879,-0.9803,-0.9629,-0.9704,-0.955,-0.9535,-0.9504,-0.9505,-0.9497,-0.9462,-0.9414,-0.9414,-0.934,-0.934,0,0,-0.98,-0.9858,-0.9762,-0.9743,-0.9775,-0.971,-0.9699,-0.954,-0.9544,-0.9504,-0.9492,-0.9458,-0.9413,-0.9412,-0.9339,-0.934,0,0,0,-0.9838,-0.9866,-0.9804,-0.9752,-0.9718,-0.9705,-0.9692,-0.9551,-0.9526,-0.9489,-0.9456,-0.9412,-0.941,-0.9339,-0.9339,-0.9417,0,0,0,-0.9844,-0.9888,-0.9809,-0.9843,-0.9722,-0.9633,-0.9707,-0.9537,-0.9518,-0.9457,-0.9412,-0.9409,-0.9338,-0.9339,-0.9414,-0.9443,0,0,0,-0.9886,-0.9893,-0.9874,-0.9847,-0.9773,-0.9634,-0.96,-0.9532,-0.9498,-0.9415,-0.9408,-0.9338,-0.9339,-0.9411,-0.9438,-0.9442,0,0,0,-0.9947,-0.9943,-0.9877,-0.9859,-0.9775,-0.9685,-0.96,-0.9528,-0.9466,-0.9411,-0.9338,-0.9339,-0.941,-0.9435,-0.944,-0.9457,-0.9469,0,0,-0.9974,-0.9948,-0.9933,-0.9869,-0.9806,-0.9707,-0.9653,-0.9539,-0.9475,-0.9388,-0.9385,-0.9415,-0.9438,-0.9442,-0.9519,-0.953,0,0,0,-0.9961,-0.9952,-0.9922,-0.9868,-0.9783,-0.9713,-0.9601,-0.9559,-0.9483,-0.9443,-0.9415,-0.9427,-0.9427,-0.9432,-0.9441,-0.9437,-0.9344,-0.9344,-0.9344,-1.0083,-1.0006,-0.9977,-0.9879,-0.9827,-0.9714,-0.9665,-0.9588,-0.9522,-0.9517,-0.9491,-0.9547,-0.9556,-0.9562,-0.956,-0.9493,-0.9493,-0.9493,-0.9494,-1.0116,-1.0091,-1.0008,-0.995,-0.9868,-0.9817,-0.9709,-0.9665,-0.9604,-0.956,-0.9556,-0.9515,-0.9577,-0.957,-0.9499,-0.9498,-0.9497,-0.9497,-0.9496,-1.0188,-1.0162,-1.0114,-1.003,-0.9973,-0.9873,-0.9821,-0.9747,-0.9676,-0.9672,-0.9637,-0.9635,-0.9625,-0.9661,-0.9661,-0.9661,-0.9661,-0.9661,-0.9662,-1.0281,-1.0224,-1.0191,-1.0104,-1.0061,-0.9994,-0.9883,-0.9837,-0.9767,-0.9717,-0.9717,-0.9653,-0.9597,-0.9586,-0.9664,-0.9664,-0.9663,-0.9663,-0.9663,-1.0344,-1.0319,-1.0268,-1.0226,-1.0118,-1.0068,-0.9975,-0.989,-0.9841,-0.9818,-0.9755,-0.9726,-0.9693,-0.9685,-0.9675,-0.9771,-0.9771,-0.9771,-0.9771,-1.0405,-1.0383,-1.0315,-1.0252,-1.0182,-1.0094,-1.0038,-0.9952,-0.9858,-0.9824,-0.9799,-0.9779,-0.9774,-0.9743,-0.9734,-0.9724,-0.983,-0.983,-0.9831,-1.0441,-1.0408,-1.0376,-1.0287,-1.0198,-1.0123,-1.0069,-0.9999,-0.9886,-0.9831,-0.9795,-0.9792,-0.9759,-0.9752,-0.9696,-0.9684,-0.9662,0,0]},{"header":{"parameterUnit":"m.s-1","parameterCategory":1,"la1":30.2992,"la2":30.254,"lo1":-89.0895,"lo2":-89.0443,"dy":0.0025,"dx":0.0025,"nx":19,"ny":19,"refTime":"2026-04-17T09:00:00:Z","depth":0,"parameterNumber":3,"parameterNumberName":"V-component_of_WINDS"},"data":[0,0,0,3.5928,3.5926,3.5832,3.5832,3.5726,3.5725,0,0,0,0,0,0,0,0,0,0,0,3.5968,3.5968,3.5928,3.5926,3.5832,3.5832,3.5726,3.5725,0,0,0,0,0,0,0,0,0,0,0,3.5968,3.5968,3.5968,3.5926,3.5832,3.5832,3.5726,3.5791,0,0,0,0,0,0,0,0,0,0,3.5879,3.593,3.5968,3.5968,3.5925,3.5833,3.5832,3.5794,3.5787,3.5776,0,3.5773,0,3.5748,3.5719,3.5719,0,0,0,3.5915,3.5936,3.59,3.5968,3.5924,3.5833,3.5871,3.579,3.5782,3.5767,3.5772,3.5767,3.5746,3.5719,3.5718,3.5702,3.5702,0,0,3.592,3.5957,3.5905,3.5896,3.5916,3.5875,3.5869,3.5785,3.5791,3.5771,3.5764,3.5745,3.5718,3.5718,3.5701,3.5702,0,0,0,3.5942,3.5961,3.5927,3.59,3.5883,3.5872,3.5865,3.5794,3.578,3.5763,3.5743,3.5718,3.5717,3.5701,3.5701,3.5761,0,0,0,3.5945,3.5974,3.5929,3.5951,3.5885,3.5838,3.5877,3.5786,3.5775,3.5744,3.5718,3.5716,3.57,3.5701,3.5759,3.5783,0,0,0,3.597,3.5977,3.5968,3.5953,3.5915,3.5839,3.5819,3.5783,3.5764,3.5719,3.5716,3.57,3.5701,3.5756,3.5779,3.5791,0,0,0,3.6006,3.602,3.597,3.5978,3.5916,3.5878,3.582,3.5788,3.5757,3.5717,3.57,3.5701,3.5755,3.5776,3.5788,3.5808,3.582,0,0,3.6045,3.6026,3.6028,3.598,3.5962,3.5889,3.5877,3.581,3.5769,3.5725,3.5724,3.576,3.5779,3.579,3.5872,3.5881,0,0,0,3.6053,3.6055,3.6041,3.6016,3.5968,3.5929,3.5861,3.5836,3.5798,3.5756,3.5765,3.5775,3.578,3.5788,3.5796,3.5798,3.5706,3.5706,3.5706,3.616,3.6111,3.611,3.605,3.6025,3.5956,3.593,3.5884,3.5838,3.5842,3.5829,3.5885,3.5895,3.5901,3.5904,3.5834,3.5834,3.5834,3.5835,3.6213,3.6208,3.6149,3.6129,3.6075,3.6054,3.5987,3.5956,3.5927,3.589,3.5892,3.5857,3.5914,3.5913,3.5839,3.5838,3.5837,3.5837,3.5837,3.6278,3.6267,3.624,3.6198,3.617,3.6106,3.6083,3.6033,3.5985,3.5987,3.5968,3.5967,3.596,3.5982,3.5982,3.5982,3.5982,3.5982,3.5982,3.6358,3.6325,3.6313,3.6265,3.6243,3.6206,3.6136,3.6111,3.6069,3.6035,3.6034,3.5988,3.5929,3.5915,3.5985,3.5985,3.5984,3.5984,3.5984,3.6431,3.6407,3.639,3.6367,3.6306,3.6282,3.6219,3.6172,3.6143,3.6133,3.6086,3.605,3.6026,3.6019,3.6008,3.6097,3.6097,3.6097,3.6097,3.6487,3.6471,3.6443,3.641,3.6372,3.6314,3.6293,3.6238,3.6177,3.6155,3.6135,3.6115,3.611,3.6089,3.608,3.6069,3.6172,3.6172,3.6172,3.6529,3.6507,3.6501,3.6446,3.6394,3.635,3.6328,3.629,3.6214,3.6174,3.6137,3.6134,3.6101,3.6093,3.6053,3.6041,3.6019,0,0]}]]